When you browse on this site, cookies collect data to enhance your experience and personalize the content and advertising you see.
Visit our Privacy Policy to learn more. By continuing to use the site, you agree to this use of cookies and data.

Previsão horária em Hobart

Hoje, 15 Agosto, Sábado

Tempo Temperatura Precipitação Vento Pressão Humidade
00:00 +9°C° 0 mm 1 m/s 747 mmHg 96%
01:00 +9°C° 0 mm 1 m/s 747 mmHg 96%
02:00 +8°C° 0.1 mm 1 m/s 747 mmHg 96%
03:00 +8°C° 0.1 mm 1 m/s 747 mmHg 96%
04:00 +8°C° 0 mm 1 m/s 747 mmHg 96%
05:00 +8°C° 0.1 mm 0 m/s 747 mmHg 96%
06:00 +8°C° 0.1 mm 0 m/s 748 mmHg 97%
07:00 +8°C° 0.1 mm 0 m/s 748 mmHg 97%
08:00 +9°C° 0.8 mm 0 m/s 748 mmHg 96%
09:00 +10°C° 0.8 mm 0 m/s 748 mmHg 96%
10:00 +10°C° 0.8 mm 0 m/s 748 mmHg 96%
11:00 +11°C° 0.4 mm 0 m/s 748 mmHg 94%
12:00 +13°C° 0.4 mm 1 m/s 747 mmHg 92%
13:00 +13°C° 0.4 mm 1 m/s 747 mmHg 90%
14:00 +13°C° 0.5 mm 1 m/s 747 mmHg 91%
15:00 +13°C° 0.5 mm 1 m/s 747 mmHg 92%
16:00 +13°C° 0.5 mm 2 m/s 747 mmHg 93%
17:00 +12°C° 0.2 mm 2 m/s 747 mmHg 94%
18:00 +12°C° 0.2 mm 1 m/s 747 mmHg 95%
19:00 +11°C° 0.2 mm 1 m/s 747 mmHg 96%
20:00 +11°C° 0.1 mm 1 m/s 747 mmHg 96%
21:00 +10°C° 0.1 mm 1 m/s 747 mmHg 97%
22:00 +10°C° 0.1 mm 1 m/s 747 mmHg 97%
23:00 +10°C° 0.1 mm 1 m/s 747 mmHg 97%

Amanhã, 16 Agosto, Domingo

Tempo Temperatura Precipitação Vento Pressão Humidade
00:00 +10°C° 0.1 mm 1 m/s 747 mmHg 96%
01:00 +10°C° 0.1 mm 1 m/s 746 mmHg 96%
02:00 +10°C° 0.4 mm 1 m/s 746 mmHg 97%
03:00 +10°C° 0.4 mm 1 m/s 746 mmHg 97%
04:00 +11°C° 0.4 mm 1 m/s 746 mmHg 97%
05:00 +10°C° 0.4 mm 2 m/s 746 mmHg 97%
06:00 +10°C° 0.4 mm 2 m/s 746 mmHg 96%
07:00 +10°C° 0.4 mm 2 m/s 746 mmHg 96%
08:00 +10°C° 0.2 mm 2 m/s 746 mmHg 95%
09:00 +11°C° 0.2 mm 3 m/s 747 mmHg 93%
10:00 +11°C° 0.2 mm 3 m/s 747 mmHg 92%
11:00 +11°C° 0.2 mm 3 m/s 746 mmHg 92%
12:00 +11°C° 0.2 mm 3 m/s 745 mmHg 91%
13:00 +11°C° 0.2 mm 3 m/s 745 mmHg 91%
14:00 +11°C° 0.4 mm 3 m/s 744 mmHg 91%
15:00 +11°C° 0.4 mm 3 m/s 744 mmHg 92%
16:00 +11°C° 0.4 mm 3 m/s 744 mmHg 93%
17:00 +10°C° 0.3 mm 3 m/s 744 mmHg 94%
18:00 +10°C° 0.3 mm 3 m/s 744 mmHg 95%
19:00 +10°C° 0.3 mm 3 m/s 744 mmHg 96%
20:00 +10°C° 0.2 mm 3 m/s 743 mmHg 96%
21:00 +10°C° 0.2 mm 3 m/s 743 mmHg 96%
22:00 +10°C° 0.2 mm 3 m/s 743 mmHg 97%
23:00 +10°C° 0.5 mm 3 m/s 743 mmHg 97%

Depois de amanhã, 17 Agosto, Segunda-feira

Tempo Temperatura Precipitação Vento Pressão Humidade
00:00 +10°C° 0.5 mm 3 m/s 742 mmHg 97%
01:00 +10°C° 0.5 mm 2 m/s 742 mmHg 97%
02:00 +9°C° 0.4 mm 2 m/s 742 mmHg 97%
03:00 +9°C° 0.4 mm 2 m/s 741 mmHg 97%
04:00 +9°C° 0.4 mm 2 m/s 741 mmHg 97%
05:00 +9°C° 0.3 mm 2 m/s 741 mmHg 97%
06:00 +9°C° 0.3 mm 2 m/s 741 mmHg 97%
07:00 +9°C° 0.3 mm 2 m/s 741 mmHg 97%
08:00 +10°C° 0.1 mm 1 m/s 740 mmHg 95%
09:00 +11°C° 0.1 mm 1 m/s 740 mmHg 93%
10:00 +11°C° 0.1 mm 1 m/s 740 mmHg 91%
11:00 +12°C° 0 mm 1 m/s 739 mmHg 86%
12:00 +13°C° 0 mm 1 m/s 739 mmHg 81%
13:00 +13°C° 0 mm 1 m/s 738 mmHg 76%
14:00 +13°C° 0 mm 1 m/s 738 mmHg 74%
15:00 +13°C° 0 mm 2 m/s 738 mmHg 72%
16:00 +14°C° 0 mm 2 m/s 737 mmHg 70%
17:00 +12°C° 0 mm 2 m/s 738 mmHg 78%
18:00 +10°C° 0 mm 1 m/s 738 mmHg 86%
19:00 +8°C° 0 mm 1 m/s 738 mmHg 95%
20:00 +8°C° 0 mm 1 m/s 738 mmHg 95%
21:00 +8°C° 0 mm 1 m/s 738 mmHg 95%
22:00 +8°C° 0 mm 1 m/s 738 mmHg 95%
23:00 +7°C° 0 mm 1 m/s 737 mmHg 95%

18 Agosto, Terça-feira

Tempo Temperatura Precipitação Vento Pressão Humidade
00:00 +7°C° 0 mm 1 m/s 737 mmHg 96%
01:00 +5°C° 0 mm 2 m/s 737 mmHg 96%
02:00 +5°C° 0 mm 2 m/s 736 mmHg 96%
03:00 +5°C° 0 mm 2 m/s 736 mmHg 95%
04:00 +5°C° 0 mm 2 m/s 735 mmHg 95%
05:00 +5°C° 0 mm 2 m/s 735 mmHg 95%
06:00 +5°C° 0 mm 2 m/s 735 mmHg 95%
07:00 +5°C° 0 mm 2 m/s 735 mmHg 95%
08:00 +6°C° 0 mm 2 m/s 734 mmHg 88%
09:00 +8°C° 0 mm 2 m/s 734 mmHg 81%
10:00 +9°C° 0 mm 2 m/s 734 mmHg 75%
11:00 +10°C° 0 mm 2 m/s 733 mmHg 74%
12:00 +12°C° 0 mm 2 m/s 733 mmHg 72%
13:00 +12°C° 0 mm 1 m/s 732 mmHg 71%
14:00 +12°C° 0.5 mm 2 m/s 732 mmHg 75%
15:00 +10°C° 0.5 mm 2 m/s 731 mmHg 79%
16:00 +10°C° 0.5 mm 3 m/s 731 mmHg 83%
17:00 +9°C° 0.1 mm 2 m/s 732 mmHg 84%
18:00 +8°C° 0.1 mm 2 m/s 732 mmHg 85%
19:00 +7°C° 0.1 mm 2 m/s 732 mmHg 86%
20:00 +6°C° 0 mm 2 m/s 732 mmHg 88%
21:00 +5°C° 0 mm 2 m/s 732 mmHg 89%
22:00 +4°C° 0 mm 2 m/s 732 mmHg 90%
23:00 +4°C° 0 mm 2 m/s 732 mmHg 90%

19 Agosto, Quarta-feira

Tempo Temperatura Precipitação Vento Pressão Humidade
00:00 +4°C° 0 mm 2 m/s 732 mmHg 89%
01:00 +4°C° 0 mm 2 m/s 732 mmHg 88%
02:00 +4°C° 0 mm 2 m/s 732 mmHg 89%
03:00 +4°C° 0 mm 2 m/s 731 mmHg 89%
04:00 +3°C° 0 mm 2 m/s 731 mmHg 90%
05:00 +4°C° 0 mm 1 m/s 731 mmHg 91%
06:00 +4°C° 0 mm 1 m/s 731 mmHg 91%
07:00 +4°C° 0 mm 1 m/s 731 mmHg 91%
08:00 +6°C° 0 mm 1 m/s 731 mmHg 85%
09:00 +6°C° 0 mm 0 m/s 731 mmHg 78%
10:00 +8°C° 0 mm 0 m/s 731 mmHg 72%
11:00 +10°C° 0 mm 1 m/s 731 mmHg 66%
12:00 +11°C° 0 mm 1 m/s 731 mmHg 61%
13:00 +10°C° 0 mm 2 m/s 730 mmHg 55%
14:00 +10°C° 0 mm 2 m/s 730 mmHg 58%
15:00 +10°C° 0 mm 2 m/s 730 mmHg 61%
16:00 +10°C° 0 mm 2 m/s 730 mmHg 64%
17:00 +8°C° 0 mm 2 m/s 730 mmHg 72%
18:00 +7°C° 0 mm 2 m/s 731 mmHg 80%
19:00 +6°C° 0 mm 2 m/s 731 mmHg 88%
20:00 +6°C° 0.1 mm 2 m/s 731 mmHg 88%
21:00 +5°C° 0.1 mm 2 m/s 731 mmHg 89%
22:00 +5°C° 0.1 mm 2 m/s 732 mmHg 89%
23:00 +5°C° 0.1 mm 2 m/s 732 mmHg 89%

20 Agosto, Quinta-feira

Tempo Temperatura Precipitação Vento Pressão Humidade
00:00 +5°C° 0.1 mm 2 m/s 732 mmHg 89%
01:00 +5°C° 0.1 mm 2 m/s 732 mmHg 88%
02:00 +5°C° 0 mm 2 m/s 732 mmHg 90%
03:00 +4°C° 0 mm 2 m/s 732 mmHg 92%
04:00 +3°C° 0 mm 2 m/s 732 mmHg 93%
05:00 +3°C° 0 mm 2 m/s 732 mmHg 93%
06:00 +2°C° 0 mm 2 m/s 733 mmHg 92%
07:00 +2°C° 0 mm 2 m/s 733 mmHg 91%
08:00 +4°C° 0 mm 2 m/s 733 mmHg 85%
09:00 +5°C° 0 mm 3 m/s 734 mmHg 78%
10:00 +8°C° 0 mm 3 m/s 734 mmHg 71%
11:00 +8°C° 0.1 mm 3 m/s 734 mmHg 73%
12:00 +7°C° 0.1 mm 4 m/s 733 mmHg 75%
13:00 +7°C° 0.1 mm 5 m/s 733 mmHg 77%
14:00 +6°C° 0.2 mm 5 m/s 733 mmHg 78%
15:00 +6°C° 0.2 mm 4 m/s 733 mmHg 79%
16:00 +5°C° 0.2 mm 4 m/s 733 mmHg 79%
17:00 +4°C° 0.4 mm 4 m/s 733 mmHg 83%
18:00 +3°C° 0.4 mm 4 m/s 734 mmHg 86%
19:00 +1°C° 0.4 mm 4 m/s 734 mmHg 90%
20:00 0°C° 0 mm 4 m/s 734 mmHg 90%
21:00 0°C° 0 mm 4 m/s 734 mmHg 90%
22:00 -1°C° 0 mm 4 m/s 734 mmHg 89%
23:00 -1°C° 0 mm 4 m/s 734 mmHg 90%
Mostrar mais